Tracking 23764 objects as of 16-Oct-2021
HD Live streaming from Space Station
objects crossing your sky now

IRIDIUM 33 DEB

Track IRIDIUM 33 DEB now!
10-day predictions


NORAD ID: 34102
Int'l Code: 1997-051DM
Perigee: 720.6 km
Apogee: 889.1 km
Inclination: 86.4 °
Period: 100.8 minutes
Semi major axis: 7175 km
RCS: 0.053 m2 (small)
Launch date: September 14, 1997
Source: United States (US)
Launch site: TYURATAM MISSILE AND SPACE COMPLEX (TTMTR)

Note: This is SATELLITE DEBRIS
aabbcc
Your satellite tracking list
Your tracking list is empty




NASA's NSSDC Master Catalog

Two Line Element Set (TLE):
1 34102U 97051DM  21288.82704819  .00003052  00000-0  11314-2 0  9994
2 34102  86.3751  36.6143 0117452 179.8551 302.8773 14.28214032654766
Source of the keplerian elements: AFSPC